Wind_Speed
16 15 14 13 11 12 11 10 10 9 9 9 8 8 8 9 9 1 6 2 11 20 21 17 7 6 4 1 3 2 5 3 3 2 4 7 4 4 6 8 2 3 6 12 26
17 15 15 14 13 11 12 11 10 9 8 8 8 9 9 10 5 7 5 10 15 25 24 16 7 8 1 2 1 3 4 1 3 1 5 6 7 5 4 6 5 9 17 26 27
17 16 15 14 13 12 12 11 10 9 8 7 7 8 8 8 2 4 15 16 20 24 20 12 11 4 2 0 3 3 4 4 7 2 10 10 4 3 9 1 5 15 18 19 16
18 15 14 13 12 12 11 10 10 8 7 7 7 7 6 2 4 2 17 19 23 22 14 9 2 2 3 4 3 6 8 5 7 6 6 8 5 8 5 3 10 15 19 19 15
18 16 15 13 12 11 11 9 8 8 6 7 6 4 0 1 6 3 18 22 23 23 14 5 3 2 4 4 4 4 5 10 14 12 1 8 6 5 3 10 16 18 17 13 12
18 16 15 13 12 11 10 8 6 6 6 6 4 2 1 2 3 7 24 28 23 20 14 7 2 2 5 5 6 6 11 11 12 12 6 5 3 7 6 12 15 16 14 11 13
19 16 14 13 12 10 9 5 4 4 5 4 1 2 1 6 3 14 28 28 26 16 5 2 2 7 3 5 6 6 10 7 8 8 5 4 3 1 12 11 13 12 12 9 10
19 17 15 13 11 9 6 3 3 3 3 2 6 2 6 4 1 20 21 18 22 13 5 3 9 2 3 4 4 4 8 7 6 3 4 4 4 4 12 14 11 11 10 11 8
20 17 15 13 10 5 0 2 3 4 1 8 3 1 6 2 6 18 18 6 16 9 5 7 6 1 3 5 3 3 4 7 7 4 4 2 3 8 11 12 10 8 10 9 8
20 16 13 9 6 2 4 11 11 8 8 4 1 2 1 4 6 14 16 10 4 7 3 1 1 1 3 3 4 6 4 6 5 1 4 4 2 9 10 12 12 10 8 8 9
19 16 12 7 2 7 17 12 3 2 2 6 5 3 3 1 10 6 10 8 2 5 5 4 3 7 11 8 2 12 7 8 3 4 3 3 2 6 8 7 9 9 7 7 11
18 13 8 4 1 4 7 3 3 3 5 7 2 7 7 2 4 3 15 6 3 4 5 3 5 10 1 6 7 7 9 6 3 5 4 4 4 4 6 10 8 8 11 14 10
16 10 6 3 2 3 3 4 1 7 3 4 5 4 5 8 4 8 10 5 4 4 4 6 6 4 5 4 6 4 8 5 4 5 5 3 4 4 3 3 6 7 7 8 13
14 8 4 3 2 2 4 6 10 8 4 3 3 5 4 5 0 5 13 6 1 7 7 5 4 4 1 5 7 3 8 8 12 4 2 2 3 5 4 6 8 9 7 7 10
12 5 2 1 2 3 2 13 6 3 4 0 3 5 2 7 5 1 5 4 7 3 6 7 2 4 3 4 5 2 12 8 6 5 4 1 2 5 3 7 9 9 8 7 6
11 5 4 3 4 2 11 3 3 5 2 2 3 4 4 3 2 3 3 5 3 4 2 8 3 4 7 2 5 12 13 9 5 3 3 2 1 4 4 6 4 6 11 9 8
11 6 7 6 1 4 10 2 5 4 4 2 3 3 3 3 4 3 5 4 5 3 2 5 5 3 3 7 5 4 7 3 4 4 5 3 1 9 6 9 10 5 5 4 4
11 3 6 9 1 5 4 5 3 2 2 2 4 4 5 5 2 3 4 4 4 5 2 1 6 3 3 5 9 6 8 5 3 4 4 3 4 5 7 7 8 4 4 4 6
5 4 2 6 7 6 5 3 3 1 2 4 4 5 2 1 2 3 4 7 6 9 7 2 5 3 2 3 6 5 3 4 8 4 2 3 6 8 4 8 11 8 8 3 3
2 2 9 7 12 5 4 3 2 3 1 2 4 2 4 2 3 3 4 3 5 10 4 3 3 2 4 2 7 3 7 4 4 5 1 4 4 5 4 4 7 6 6 3 3
2 4 8 6 6 5 2 3 4 3 2 5 2 3 1 2 3 4 5 2 3 3 6 5 3 7 1 4 3 1 1 7 6 4 5 2 5 6 6 4 6 5 5 4 6
3 3 3 6 4 1 2 3 6 5 6 6 4 2 2 3 3 2 0 5 5 7 7 2 5 2 2 5 1 3 3 4 5 4 1 3 5 4 6 6 3 5 5 7 6
3 1 1 3 4 4 6 4 4 8 6 5 6 5 3 3 5 2 3 4 9 3 3 5 2 3 7 7 4 6 3 4 5 4 4 5 5 3 8 7 5 2 4 5 4
2 3 4 4 1 2 5 5 4 7 5 5 4 4 6 8 7 4 7 4 8 4 8 7 3 5 6 5 2 3 3 4 3 4 6 5 3 1 4 4 6 3 2 3 3
4 1 2 3 4 3 1 2 4 4 6 8 7 6 3 6 6 6 5 7 4 6 5 4 3 0 2 5 3 3 4 2 3 4 5 5 8 2 4 4 3 2 3 3 4
3 3 4 2 3 3 6 6 5 5 3 4 4 4 6 4 3 2 3 1 1 6 5 5 1 1 3 7 5 2 6 6 3 5 4 5 1 4 6 5 4 3 6 6 6
6 2 2 4 5 3 3 4 6 3 1 3 2 3 3 3 3 6 5 3 2 2 3 3 3 3 3 5 5 5 5 3 1 2 5 6 5 4 4 5 3 2 4 6 3
Wind_Direction
340 337 334 331 331 328 326 321 320 313 310 315 319 318 325 323 312 228 233 209 173 158 152 145 158 162 167 134 171 109 56 32 23 96 146 155 117 184 104 140 126 94 122 141 154
336 332 329 325 321 318 317 314 312 307 305 311 315 316 324 327 311 225 221 181 165 158 150 156 147 152 56 13 9 59 87 37 335 325 159 135 144 110 119 166 60 86 93 132 155
331 325 321 318 313 311 309 306 306 303 300 306 311 312 321 329 292 240 174 167 170 161 156 150 137 144 89 161 9 345 50 343 2 18 131 141 130 85 143 273 161 150 142 156 150
329 324 318 316 312 308 303 300 299 297 293 301 304 308 313 350 154 109 166 166 168 164 147 141 153 101 78 51 23 74 43 28 337 344 150 150 119 121 199 248 142 148 150 150 158
327 323 318 315 309 307 299 296 295 294 287 297 297 291 33 261 255 148 166 162 165 165 171 150 142 129 53 112 109 63 45 9 23 16 30 152 148 143 256 100 120 132 140 160 167
326 324 318 314 310 305 298 290 290 286 283 298 291 210 105 237 345 174 168 165 173 177 177 158 226 188 75 31 39 42 28 18 12 18 351 142 159 122 123 126 127 140 156 167 177
328 325 320 315 307 302 291 278 268 267 284 281 191 123 71 224 23 167 164 175 186 189 86 180 16 51 2 91 88 38 29 359 7 350 332 77 107 120 143 136 145 151 160 177 190
331 328 321 315 308 299 287 258 210 247 262 223 145 128 236 316 174 178 173 180 195 194 78 76 225 91 107 114 107 41 42 28 320 347 287 79 183 144 152 149 164 159 171 171 190
336 330 322 316 311 305 239 172 172 139 99 123 80 59 267 3 161 185 185 161 194 216 249 323 6 105 97 95 43 18 141 228 302 197 220 213 154 167 162 162 168 174 181 183 174
342 336 330 328 329 56 122 127 117 101 107 73 43 6 255 218 157 161 174 139 142 108 23 42 62 349 69 107 201 176 235 228 243 103 179 357 326 164 180 173 180 181 200 192 196
344 343 338 338 28 116 120 120 66 29 230 189 203 236 295 36 135 158 152 182 151 140 144 208 113 225 215 203 215 175 197 213 159 171 99 132 110 177 183 212 190 186 192 215 213
342 344 346 348 96 146 156 196 178 138 308 211 270 289 257 282 122 109 146 134 145 190 116 30 241 252 342 200 207 200 182 209 78 136 91 105 107 142 167 215 219 227 209 198 227
344 346 354 10 31 100 190 226 290 306 134 291 188 201 235 145 196 196 147 141 143 193 165 173 237 243 197 242 172 207 195 183 164 125 52 82 350 175 177 187 208 219 208 216 208
344 345 360 38 64 11 248 331 320 159 64 283 240 261 121 142 192 181 169 135 121 194 171 229 266 247 282 239 156 252 207 170 138 101 149 58 275 252 184 222 209 216 204 190 199
339 326 355 208 321 200 347 331 130 113 67 179 188 169 158 138 157 212 175 80 158 192 108 245 208 245 278 222 155 349 100 115 104 90 117 249 98 260 150 229 215 216 217 218 215
338 271 230 209 239 272 333 22 120 42 113 170 145 141 108 37 52 94 113 62 145 151 257 243 270 255 215 99 147 144 78 45 61 86 1 290 84 280 202 203 200 201 213 208 205
334 265 217 188 227 343 341 59 34 100 336 164 141 113 97 48 53 102 147 162 179 116 289 313 241 264 160 79 20 85 71 29 34 12 224 34 80 246 259 240 223 166 249 253 204
350 221 221 231 51 16 20 50 59 253 200 76 93 80 143 163 192 117 106 182 171 97 79 144 329 204 191 181 175 185 147 149 195 182 253 62 240 259 235 276 302 119 129 138 180
26 55 22 350 263 240 67 65 219 250 306 127 77 87 326 258 142 119 168 190 212 172 183 151 285 287 169 173 129 184 143 173 104 359 55 277 294 305 271 306 299 293 69 314 220
52 72 14 24 107 111 75 240 328 222 355 49 109 107 170 211 140 140 184 211 216 182 157 204 333 259 283 102 44 136 147 74 18 132 260 281 285 247 65 314 334 354 46 139 255
38 61 4 131 359 49 103 268 306 308 107 71 129 119 172 146 170 198 199 267 208 118 148 141 125 292 32 29 176 83 79 54 108 102 154 189 267 212 179 94 12 54 80 18 345
12 49 3 340 40 30 13 329 314 333 17 51 95 58 196 150 92 133 1 231 329 159 153 189 143 258 283 298 279 145 98 130 120 213 100 138 271 153 132 135 138 304 320 323 319
60 255 63 324 58 345 320 347 18 23 24 26 23 43 44 56 88 59 15 324 355 80 136 188 19 38 353 347 14 59 62 101 111 102 191 136 255 79 125 150 177 202 284 306 333
66 35 332 48 41 84 16 359 352 353 49 37 19 51 44 27 15 55 10 331 354 39 65 89 91 141 180 215 236 315 132 193 96 112 166 226 275 23 58 19 28 11 31 17 350
25 70 186 342 354 36 84 337 341 22 5 27 8 49 54 44 16 12 359 337 348 5 42 91 92 37 265 275 231 291 11 163 169 170 141 227 198 125 157 84 29 13 49 57 22
69 31 356 324 294 8 10 3 14 338 62 342 94 5 27 78 141 287 13 350 317 340 43 354 125 65 353 355 8 100 53 70 53 123 84 105 359 152 93 98 83 22 48 46 36
12 28 104 317 351 54 334 318 332 301 65 70 179 90 53 314 226 218 211 237 270 358 5 55 102 59 289 352 3 6 356 301 200 175 155 153 220 113 99 114 150 105 67 75 54
Height
792 790 788 786 784 782 780 778 775 773 771 770 769 767 767 767 766 766 764 761 762 767 772 777 780 781 783 783 782 783 805 814 802 799 800 788 796 791 790 798 797 800 806 812 820
790 788 786 783 782 780 778 775 774 772 770 769 768 766 766 765 764 764 757 758 760 765 771 775 779 781 786 785 784 791 810 804 789 786 791 791 793 794 800 801 806 806 810 816 819
787 785 782 780 779 777 775 773 772 770 769 768 767 765 764 764 764 754 754 758 762 766 770 774 777 778 786 785 788 791 804 794 788 781 782 790 793 791 804 807 805 810 812 814 820
783 781 779 777 776 774 772 770 769 769 768 767 766 765 763 764 778 752 755 757 761 766 771 774 776 782 788 792 787 798 791 793 789 784 785 794 789 798 800 796 795 804 808 814 821
780 778 776 774 772 771 770 769 767 767 766 765 765 764 765 765 759 752 755 758 763 767 769 773 778 781 789 790 790 793 793 789 789 785 783 785 793 795 798 794 798 806 812 817 820
777 775 773 771 769 768 767 766 766 765 765 764 764 764 766 771 753 751 754 758 761 765 769 772 774 774 782 789 793 800 790 791 787 792 788 792 797 792 800 798 804 809 813 817 820
773 771 769 768 767 766 765 764 764 763 763 763 763 764 766 759 754 753 756 758 761 765 772 775 774 777 782 799 794 793 791 787 784 794 798 790 806 803 798 801 807 812 814 818 820
769 767 765 764 763 763 763 762 762 762 762 762 763 765 765 753 754 755 757 761 765 769 774 775 774 778 784 788 798 801 803 824 793 798 794 800 821 803 798 802 811 812 814 816 819
766 763 761 761 760 760 761 761 762 762 763 763 766 766 763 753 754 755 757 761 767 772 776 775 775 783 788 806 816 810 829 830 809 790 798 802 813 801 798 803 811 812 811 814 818
763 760 759 758 758 759 759 761 763 765 765 766 766 770 755 753 750 754 760 763 767 773 779 782 787 797 806 814 833 827 823 815 816 798 800 809 809 806 803 804 808 811 813 812 813
761 759 757 756 757 758 760 763 769 771 767 760 758 756 749 748 750 754 759 764 765 773 793 787 804 811 799 798 792 797 804 810 805 795 802 810 812 811 808 810 811 813 815 815 811
760 757 756 755 755 757 759 760 756 758 766 752 754 753 748 748 755 754 758 769 773 789 785 797 809 784 783 788 795 795 804 811 800 795 800 808 813 806 807 808 808 810 808 808 810
759 756 754 754 755 757 757 755 755 754 767 755 753 751 746 747 755 757 755 763 776 787 791 803 788 775 782 785 795 797 802 804 804 802 805 809 823 813 803 802 802 802 801 802 800
757 755 754 754 758 757 755 753 751 751 786 766 755 744 744 745 756 747 750 760 773 787 790 791 774 775 779 786 787 799 780 786 802 813 834 816 848 821 811 808 802 800 797 796 795
755 754 754 754 754 755 754 751 749 753 812 757 751 737 741 752 752 754 748 756 780 778 785 789 778 779 784 774 774 789 778 790 802 821 825 824 838 819 811 813 804 801 797 796 794
753 752 752 753 753 751 750 749 750 788 800 763 746 752 754 752 753 753 754 753 760 776 777 781 764 767 768 762 765 776 790 807 815 825 843 830 833 824 815 801 793 790 790 790 792
750 749 750 751 751 750 748 749 791 799 758 768 762 753 759 767 763 760 770 776 791 804 799 784 776 760 755 778 774 783 808 853 853 856 855 831 837 820 793 784 782 791 789 789 789
745 745 747 749 749 749 749 771 791 768 767 755 760 763 772 767 765 769 779 789 778 788 808 808 803 763 755 762 783 787 798 834 835 871 848 830 837 808 782 776 775 780 787 787 787
745 747 748 748 747 750 761 795 781 767 756 760 762 772 773 766 765 770 777 787 778 777 802 804 794 756 754 750 758 785 803 799 844 852 850 843 822 794 783 783 775 777 784 784 782
747 747 750 749 748 751 775 787 768 758 751 755 771 769 780 775 776 776 780 765 769 767 765 781 802 764 758 750 760 765 784 811 830 855 852 844 837 827 800 790 780 783 786 785 783
748 755 754 752 752 762 783 779 764 747 744 757 767 770 773 777 778 781 772 761 757 763 764 777 792 780 762 775 780 784 792 818 827 840 855 854 834 800 794 790 789 787 786 785 785
752 770 756 755 770 786 783 772 761 755 747 754 759 765 771 773 778 777 774 771 753 760 775 773 796 802 780 768 767 768 781 800 824 836 845 839 825 786 787 789 790 788 786 784 783
766 768 757 757 788 787 776 765 760 761 763 760 766 764 767 776 782 775 769 752 754 752 762 771 800 819 803 785 768 778 783 797 810 820 835 834 823 786 790 791 791 791 790 788 786
769 779 769 767 778 779 784 781 772 757 763 764 769 763 771 780 778 780 777 759 756 758 761 766 803 806 822 800 790 783 778 789 794 817 830 826 800 783 787 786 792 792 789 790 790
776 792 790 792 784 786 782 782 779 780 767 767 771 775 777 791 785 791 780 773 759 763 764 771 797 794 789 790 788 780 784 781 785 796 796 792 801 787 786 787 789 788 790 791 789
790 795 791 791 791 782 788 786 784 778 773 777 778 775 776 784 784 787 782 779 778 768 775 781 801 794 789 790 786 785 784 785 789 794 797 797 789 782 788 786 790 790 792 790 788
792 793 795 795 792 787 793 785 783 777 770 769 771 779 778 773 768 769 769 771 769 775 784 789 801 808 809 803 791 801 788 784 784 783 788 795 783 784 790 790 791 791 792 791 790